| time (UTC) | temp F | wind direction | speed MPH | gust MPH | rain 1hr in | rain 24hr in | rain mn in | humidity % | barometer mb |
| 20260503232111 | 59 | 113 | 1.0 | 3.0 | 0.00 | 0.01 | 0.00 | 70 | 1013.3 |
| 20260503231040 | 59 | 51 | 2.0 | 4.0 | 0.00 | 0.01 | 0.00 | 71 | 1013.5 |
| 20260503230040 | 59 | 358 | 2.0 | 4.0 | 0.00 | 0.01 | 0.00 | 71 | 1013.5 |
| 20260503225149 | 59 | 340 | 2.0 | 3.0 | 0.00 | 0.01 | 0.00 | 71 | 1013.5 |
| 20260503224058 | 59 | 332 | 1.0 | 4.0 | 0.00 | 0.01 | 0.00 | 71 | 1013.6 |
| 20260503223057 | 60 | 342 | 2.0 | 5.0 | 0.00 | 0.01 | 0.00 | 70 | 1013.5 |
| 20260503222107 | 60 | 8 | 2.0 | 4.0 | 0.00 | 0.01 | 0.00 | 69 | 1013.5 |
| 20260503221116 | 60 | 47 | 1.0 | 3.0 | 0.00 | 0.01 | 0.00 | 69 | 1013.5 |
| 20260503220055 | 60 | 0.0 | 0.0 | 0.00 | 0.01 | 0.00 | 70 | 1013.5 | |
| 20260503215035 | 60 | 0.0 | 0.0 | 0.00 | 0.01 | 0.01 | 70 | 1013.5 | |
| 20260503214204 | 60 | 0.0 | 0.0 | 0.00 | 0.01 | 0.01 | 69 | 1013.3 | |
| 20260503213033 | 60 | 0.0 | 0.0 | 0.00 | 0.01 | 0.01 | 69 | 1013.3 | |
| 20260503212032 | 60 | 0.0 | 0.0 | 0.00 | 0.01 | 0.01 | 68 | 1013.3 | |
| 20260503211032 | 60 | 0.0 | 0.0 | 0.00 | 0.01 | 0.01 | 67 | 1013.3 | |
| 20260503210331 | 60 | 0.0 | 0.0 | 0.00 | 0.01 | 0.01 | 67 | 1013.2 | |
| 20260503205150 | 60 | 0.0 | 0.0 | 0.00 | 0.01 | 0.01 | 67 | 1013.2 | |
| 20260503204150 | 60 | 357 | 2.0 | 4.0 | 0.00 | 0.01 | 0.01 | 67 | 1013.0 |
| 20260503203059 | 60 | 350 | 3.0 | 7.0 | 0.01 | 0.01 | 0.01 | 69 | 1012.8 |
| 20260503202029 | 60 | 1 | 3.0 | 7.0 | 0.01 | 0.01 | 0.01 | 69 | 1012.6 |
| 20260503201058 | 60 | 71 | 4.0 | 8.0 | 0.01 | 0.01 | 0.01 | 70 | 1012.6 |
| 20260503200027 | 60 | 44 | 4.0 | 8.0 | 0.01 | 0.01 | 0.01 | 70 | 1012.5 |
| 20260503195026 | 60 | 103 | 3.0 | 14.0 | 0.01 | 0.01 | 0.01 | 71 | 1012.5 |
| 20260503194135 | 60 | 35 | 4.0 | 11.0 | 0.01 | 0.01 | 0.01 | 71 | 1012.5 |
| 20260503193055 | 60 | 37 | 6.0 | 11.0 | 0.00 | 0.00 | 0.00 | 69 | 1012.5 |
| 20260503192114 | 61 | 32 | 5.0 | 16.0 | 0.00 | 0.00 | 0.00 | 68 | 1012.3 |
| 20260503191023 | 61 | 125 | 5.0 | 10.0 | 0.00 | 0.00 | 0.00 | 66 | 1012.4 |
| 20260503190042 | 61 | 164 | 2.0 | 7.0 | 0.00 | 0.00 | 0.00 | 66 | 1012.3 |
| 20260503185022 | 61 | 115 | 6.0 | 14.0 | 0.00 | 0.00 | 0.00 | 66 | 1012.2 |
| 20260503184051 | 61 | 98 | 6.0 | 12.0 | 0.00 | 0.00 | 0.00 | 67 | 1012.3 |
| 20260503183050 | 61 | 144 | 9.0 | 14.0 | 0.00 | 0.00 | 0.00 | 67 | 1012.2 |
| 20260503182050 | 61 | 124 | 4.0 | 15.0 | 0.00 | 0.00 | 0.00 | 69 | 1012.1 |
| 20260503181019 | 61 | 108 | 5.0 | 14.0 | 0.00 | 0.00 | 0.00 | 71 | 1012.1 |
| 20260503180018 | 61 | 101 | 4.0 | 7.0 | 0.00 | 0.00 | 0.00 | 72 | 1012.3 |
| 20260503175108 | 61 | 110 | 3.0 | 7.0 | 0.00 | 0.00 | 0.00 | 72 | 1012.7 |
| 20260503174127 | 62 | 141 | 3.0 | 8.0 | 0.00 | 0.00 | 0.00 | 70 | 1012.8 |
| 20260503173046 | 63 | 344 | 3.0 | 5.0 | 0.00 | 0.00 | 0.00 | 67 | 1013.2 |
| 20260503172045 | 63 | 122 | 6.0 | 12.0 | 0.00 | 0.00 | 0.00 | 64 | 1013.2 |
| 20260503171045 | 63 | 129 | 6.0 | 21.0 | 0.00 | 0.00 | 0.00 | 64 | 1013.1 |
| 20260503170104 | 63 | 135 | 5.0 | 19.0 | 0.00 | 0.00 | 0.00 | 63 | 1013.0 |
| 20260503131027 | 74 | 141 | 5.0 | 16.0 | 0.00 | 0.00 | 0.00 | 55 | 1014.5 |
| 20260503120112 | 74 | 79 | 7.0 | 16.0 | 0.00 | 0.00 | 0.00 | 56 | 1015.0 |
| 20260503081035 | 66 | 90 | 2.0 | 3.0 | 0.00 | 0.00 | 0.00 | 64 | 1015.6 |
| 20260503072032 | 63 | 113 | 3.0 | 5.0 | 0.00 | 0.00 | 0.00 | 68 | 1015.4 |
| 20260503071101 | 62 | 161 | 2.0 | 3.0 | 0.00 | 0.00 | 0.00 | 68 | 1015.4 |
| 20260503055055 | 60 | 110 | 4.0 | 8.0 | 0.00 | 0.00 | 0.00 | 67 | 1014.9 |
| 20260503054025 | 60 | 100 | 2.0 | 4.0 | 0.00 | 0.00 | 0.00 | 67 | 1014.8 |
| 20260503053114 | 60 | 98 | 2.0 | 4.0 | 0.00 | 0.00 | 0.00 | 67 | 1014.7 |
| 20260503052053 | 59 | 90 | 3.0 | 7.0 | 0.00 | 0.00 | 0.00 | 68 | 1014.8 |
| 20260503051022 | 59 | 99 | 3.0 | 7.0 | 0.00 | 0.00 | 0.00 | 68 | 1015.0 |
| 20260503050052 | 59 | 57 | 3.0 | 7.0 | 0.00 | 0.00 | 0.00 | 68 | 1014.6 |
| 20260503045021 | 59 | 96 | 2.0 | 5.0 | 0.00 | 0.00 | 0.00 | 68 | 1014.7 |
| 20260503044050 | 59 | 123 | 3.0 | 5.0 | 0.00 | 0.00 | 0.00 | 68 | 1014.8 |
| 20260503043050 | 59 | 132 | 3.0 | 8.0 | 0.00 | 0.00 | 0.00 | 68 | 1014.7 |
| 20260503042049 | 60 | 103 | 3.0 | 4.0 | 0.00 | 0.00 | 0.00 | 68 | 1014.8 |
| 20260503041047 | 60 | 152 | 2.0 | 4.0 | 0.00 | 0.00 | 0.00 | 68 | 1014.7 |
| 20260503040017 | 60 | 114 | 2.0 | 4.0 | 0.00 | 0.00 | 0.00 | 68 | 1014.8 |
| 20260503035126 | 60 | 130 | 1.0 | 3.0 | 0.00 | 0.00 | 0.00 | 69 | 1014.8 |
| 20260503034045 | 59 | 90 | 2.0 | 5.0 | 0.00 | 0.00 | 0.00 | 69 | 1014.9 |
| 20260503033105 | 59 | 0 | 2.0 | 3.0 | 0.00 | 0.00 | 0.00 | 69 | 1015.0 |
| 20260503032104 | 59 | 18 | 1.0 | 4.0 | 0.00 | 0.00 | 0.00 | 69 | 1015.2 |
| 20260503031043 | 60 | 3 | 2.0 | 5.0 | 0.00 | 0.00 | 0.00 | 68 | 1015.2 |
| 20260503030043 | 60 | 353 | 2.0 | 4.0 | 0.00 | 0.00 | 0.00 | 68 | 1015.3 |
| 20260503025042 | 60 | 27 | 1.0 | 3.0 | 0.00 | 0.00 | 0.00 | 68 | 1015.4 |
| 20260503024041 | 60 | 27 | 1.0 | 3.0 | 0.00 | 0.00 | 0.00 | 67 | 1015.2 |
| 20260503023041 | 60 | 40 | 1.0 | 5.0 | 0.00 | 0.00 | 0.00 | 67 | 1015.0 |
| 20260503022100 | 60 | 120 | 2.0 | 5.0 | 0.00 | 0.00 | 0.00 | 67 | 1015.1 |
| 20260503021109 | 59 | 113 | 2.0 | 4.0 | 0.00 | 0.00 | 0.00 | 68 | 1015.2 |
| 20260503020038 | 59 | 103 | 2.0 | 3.0 | 0.00 | 0.00 | 0.00 | 68 | 1015.2 |
| 20260503015021 | 59 | 158 | 1.0 | 4.0 | 0.00 | 0.00 | 0.00 | 68 | 1015.3 |
| 20260503014020 | 59 | 338 | 0.0 | 1.0 | 0.00 | 0.00 | 0.00 | 67 | 1015.5 |
| 20260503013049 | 59 | 15 | 1.0 | 3.0 | 0.00 | 0.00 | 0.00 | 67 | 1015.3 |
| 20260503012019 | 59 | 68 | 0.0 | 4.0 | 0.00 | 0.00 | 0.00 | 67 | 1015.6 |
| 20260503011048 | 59 | 48 | 2.0 | 8.0 | 0.00 | 0.00 | 0.00 | 67 | 1015.5 |
| 20260503010047 | 59 | 12 | 2.0 | 4.0 | 0.00 | 0.00 | 0.00 | 68 | 1015.8 |
| 20260503005037 | 59 | 353 | 2.0 | 4.0 | 0.00 | 0.00 | 0.00 | 68 | 1016.0 |
| 20260503004046 | 59 | 44 | 3.0 | 4.0 | 0.00 | 0.00 | 0.00 | 69 | 1016.1 |
| 20260503003045 | 59 | 47 | 3.0 | 5.0 | 0.00 | 0.00 | 0.00 | 69 | 1016.0 |
| 20260503002044 | 59 | 93 | 2.0 | 5.0 | 0.00 | 0.00 | 0.00 | 68 | 1016.1 |
| 20260503001044 | 59 | 32 | 2.0 | 4.0 | 0.00 | 0.00 | 0.00 | 67 | 1016.2 |
| 20260503000043 | 59 | 32 | 3.0 | 5.0 | 0.00 | 0.00 | 0.00 | 67 | 1016.3 |
| 20260502235042 | 59 | 3 | 2.0 | 5.0 | 0.00 | 0.00 | 0.00 | 67 | 1016.4 |
| 20260502234102 | 58 | 18 | 4.0 | 7.0 | 0.00 | 0.00 | 0.00 | 68 | 1016.3 |
| 20260502233041 | 58 | 10 | 3.0 | 5.0 | 0.00 | 0.00 | 0.00 | 67 | 1016.4 |